• MPC Preparation (Info)

  • MPEC 2014-R11 : 2014 QL365

    The following Minor Planet Electronic Circular may be linked-to from your own Web pages, but must not otherwise be redistributed electronically.

    A form allowing access to any MPEC is at the bottom of this page.


    Read MPEC 2014-R10 Read MPEC 2014-R12


    M.P.E.C. 2014-R11                                Issued 2014 Sept. 1, 14:53 UT
    
         The Minor Planet Electronic Circulars contain information on unusual
             minor planets and routine data on comets.  They are published
       on behalf of Commission 20 of the International Astronomical Union by the
              Minor Planet Center, Smithsonian Astrophysical Observatory,
                              Cambridge, MA 02138, U.S.A.
    
                 Prepared using the Tamkin Foundation Computer Network
    
                                  MPC@CFA.HARVARD.EDU
                URL https://www.minorplanetcenter.net/    ISSN 1523-6714
    
                                      2014 QL365
    
    Observations:
         K14Qa5L* C2014 08 31.33608 22 09 46.91 +07 40 14.7          19.1 VqER011703
         K14Qa5L  C2014 08 31.34734 22 09 52.13 +07 50 36.4          19.5 VqER011703
         K14Qa5L  C2014 08 31.35295 22 09 54.68 +07 55 41.9          19.6 VqER011703
         K14Qa5L  C2014 08 31.37218 22 10 03.89 +08 13 34.7          19.1 VqER011703
         K14Qa5L  C2014 08 31.37245 22 10 04.03 +08 13 49.3          18.8 VqER011703
         K14Qa5L  C2014 08 31.37272 22 10 04.19 +08 14 04.7          19.1 VqER011703
         K14Qa5L  C2014 08 31.37298 22 10 04.25 +08 14 19.2          19.2 VqER011703
         K14Qa5L  C2014 08 31.39767 22 10 16.60 +08 37 15.7          18.5 VqER011703
         K14Qa5L  C2014 08 31.39794 22 10 16.66 +08 37 31.3          18.8 VqER011703
         K14Qa5L  C2014 08 31.39821 22 10 16.79 +08 37 46.5          18.5 VqER011703
         K14Qa5L  C2014 08 31.39848 22 10 16.90 +08 38 01.1          19.8 VqER011703
         K14Qa5L  C2014 08 31.41820 22 10 27.13 +08 56 23.9          18.8 VqER011703
         K14Qa5L  C2014 08 31.41847 22 10 27.26 +08 56 38.9          18.9 VqER011703
         K14Qa5L  C2014 08 31.41873 22 10 27.42 +08 56 53.8          19.1 VqER011703
         K14Qa5L  C2014 08 31.41900 22 10 27.60 +08 57 08.8          19.3 VqER011703
         K14Qa5L KC2014 08 31.87429 22 16 40.35 +16 21 28.9          19.0 VqER011958
         K14Qa5L KC2014 08 31.87728 22 16 42.26 +16 24 32.8          19.4 VqER011958
         K14Qa5L KC2014 08 31.88126 22 16 44.78 +16 28 36.6          19.2 VqER011958
         K14Qa5L KC2014 08 31.88725 22 16 48.45 +16 34 43.0          18.7 VqER011958
         K14Qa5L KC2014 08 31.91711822 17 05.36 +17 04 11.6                qER011J95
         K14Qa5L KC2014 08 31.92131222 17 08.03 +17 08 29.1                qER011J95
         K14Qa5L KC2014 08 31.92465322 17 10.14 +17 11 54.7          19.1 RqER011J95
         K14Qa5L KC2014 09 01.05991 22 19 17.67 +19 31 51.9          19.1 VqER011H21
         K14Qa5L KC2014 09 01.06561 22 19 21.82 +19 37 50.0          19.1 VqER011H21
         K14Qa5L KC2014 09 01.07012 22 19 25.06 +19 42 36.0          19.0 VqER011H21
         K14Qa5L  C2014 09 01.30282 22 22 13.79 +23 49 00.4          18.9 VqER011G96
         K14Qa5L  C2014 09 01.30304 22 22 13.93 +23 49 14.7          18.9 VqER011G96
         K14Qa5L  C2014 09 01.30326 22 22 14.06 +23 49 28.5          18.6 VqER011G96
         K14Qa5L  C2014 09 01.30348 22 22 14.23 +23 49 42.5          18.9 VqER011G96
    
    Observer details:
    703 Catalina Sky Survey.  Observer R. A. Kowalski.  Measurers
        E. J. Christensen, A. R. Gibbs, A. D. Grauer, R. E. Hill, J. A. Johnson,
        R. A. Kowalski, S. M. Larson, F. C. Shelly.  0.68-m Schmidt + CCD.
    958 Observatoire de Dax.  Observers P. Dupouy, J. B. de Vanssay.  Measurer
        P. Dupouy.  0.43-m f/2.7 reflector + CCD.
    G96 Mt. Lemmon Survey.  Observer A. D. Grauer.  Measurers E. J. Christensen,
        A. R. Gibbs, A. D. Grauer, R. E. Hill, J. A. Johnson, R. A. Kowalski,
        S. M. Larson, F. C. Shelly.  1.5-m reflector + CCD.
    H21 Astronomical Research Observatory, Westfield.  Observer R. Holmes.
        Measurers L. Buzzi, S. Foglia, T. Vorobjov, T. Linder.  0.61-m f/4.0
        astrograph + CCD.
    J95 Great Shefford.  Observer P. Birtwhistle.  0.40-m f/6.0 Schmidt-Cassegrain
        + CCD.
    
    Orbital elements:
    2014 QL365                                               Earth MOID = 0.0148 AU
    Epoch 2014 Dec. 9.0 TT = JDT 2457000.5                  MPC
    M  36.90747              (2000.0)            P               Q
    n   0.51410445     Peri.   33.86847     +0.98319210     -0.17239052
    a   1.5432459      Node   335.84397     +0.11715084     +0.84826363
    e   0.3634122      Incl.    8.44849     +0.14003202     +0.50072980
    P   1.92           H   27.1           G   0.15           U   6
    Residuals in seconds of arc
    140831 703 (0.3-  2.7+)   140831 703  0.5-  0.1+    140831 J95  0.3+  0.3-
    140831 703  0.2-  0.9+    140831 703  0.1+  0.2-    140831 J95  0.1+  0.3-
    140831 703 (1.3-  4.7-)   140831 703  0.1-  0.3-    140901 H21  0.7-  0.3+
    140831 703  0.5-  0.2-    140831 703  0.2+  0.0     140901 H21  0.3-  1.0-
    140831 703  0.4-  0.6-    140831 703  0.8+  0.1-    140901 H21  0.2-  0.5+
    140831 703  0.0   0.2-    140831 958 (0.1-  1.7+)   140901 G96  0.1-  0.1-
    140831 703  0.9-  0.2-    140831 958 (0.2+  2.0+)   140901 G96  0.2-  0.2+
    140831 703  1.1+  0.1-    140831 958  0.4+  1.4+    140901 G96  0.3-  0.1+
    140831 703  0.0   0.4+    140831 958  0.8-  0.3-    140901 G96  0.0   0.2+
    140831 703  0.1-  0.6+    140831 J95  0.3+  0.3+
    
    Ephemeris:
    2014 QL365               a,e,i = 1.54, 0.36, 8                   q = 0.9824
    Date    TT    R. A. (2000) Decl.     Delta      r     Elong.  Phase     V
    2014 08 02    21 15 05.7 -50 05 22   0.1436  1.1384   147.3    28.8    24.4
    ...
    2014 08 17    21 21 59.9 -47 10 44   0.07210 1.0731   146.1    31.8    22.9
    ...
    2014 08 25    21 34 36.8 -37 03 35   0.03692 1.0438   152.4    26.7    21.2
    ...
    2014 08 31    22 06 25.4 +02 45 09   0.01587 1.0250   166.3    13.5    18.9
    2014 09 01    22 17 59.1 +18 34 04   0.01443 1.0221   152.4    27.2    19.2
    2014 09 02    22 33 53.4 +36 04 56   0.01430 1.0194   135.8    43.7    19.6
    ...
    2014 09 08    05 11 22.1 +79 30 16   0.03179 1.0047    83.9    94.3    23.0
    ...
    2014 09 16    08 08 04.5 +70 03 07   0.06500 0.9907    75.0   101.4    24.8
    ...
    2014 10 01    08 46 52.5 +63 28 11   0.1267  0.9828    78.0    94.7    26.0
    
    A. U. Tomatic                (C) Copyright 2014 MPC           M.P.E.C. 2014-R11
    

    Read MPEC 2014-R10 Read MPEC 2014-R12


    MPEC number:

    Enter an MPEC number in one of the following forms:

    • 1997-B01 (the full form)
    • J97B01 (the packed version of the full form)
    • B01 (the abbreviated form)